Torna al catalogo

CUBESAT XI 4

AttivoRadioamatoreSSO
NORAD 27848·PAYLOAD·🇯🇵 Japan

Lanciato Jun 30, 2003 da Plesetsk Cosmodrome

Loading…

Prossimi Passaggi (prossime 24 ore)

TLE

AggiornatoSource: Space-Track

Epoca: Sep 14, 2026, 11:52 UTC

1 27848U 03031J   26257.49476793  .00000148  00000-0  84046-4 0  9996
2 27848  98.6802 264.5861 0008535 310.1780  49.8651 14.23659826204080

Traccia CUBESAT XI 4 in tempo reale con AllMySat

Download on the App Store